Hourly Data Report for October 27, 2020

MUSKOKA
ONTARIO
Current Station Operator: NAVCAN

44°58'29.000" N
79°18'12.000" W
281.90 m
6115529
71532
YQA

Download Data

Hourly Data (October 2020)
Hourly Data Report for October 27, 2020
TIME Temp Definition
°C
Dew Point Definition
°C
Rel Hum Definition
%
Wind Dir Definition
10's deg

Wind Spd Definition
km/h
Visibility Definition
km
Stn Press Definition
kPa
Hmdx Definition


Wind Chill Definition


Weather Definition


00:00 1.3 0.7 96 34 5 16.1 98.95     LegendNANA
01:00 1.1 0.4 95   0 16.1 98.98     LegendNANA
02:00 0.8 0.1 95 33 8 16.1 99.05     LegendNANA
03:00 0.3 -0.6 94 34 8 16.1 99.06     LegendNANA
04:00 -0.3 -0.9 96 LegendMM 4 16.1 99.02   -2 LegendNANA
05:00 -0.5 -1.4 94 LegendMM 4 16.1 99.04   -2 LegendNANA
06:00 -0.6 -1.5 94 3 5 16.1 99.06   -2 LegendNANA
07:00 -0.6 -1.9 91 5 5 16.1 99.04   -2 LegendNANA
08:00 -0.6 -1.9 91 2 5 16.1 99.13   -2 LegendNANA
09:00 -0.2 -2.6 84 9 9 16.1 99.06   -3 LegendNANA
10:00 0.3 -2.0 85 11 9 16.1 99.02     LegendNANA
11:00 0.5 -2.1 83 9 5 16.1 99.00     LegendNANA
12:00 1.0 -0.5 90 10 8 6.4 98.92     Snow
13:00 0.7 -0.7 91 8 8 4.0 98.84     Snow
14:00 0.2 -0.2 97 LegendMM 4 1.6 98.81     Snow
15:00 0.2 -0.3 97 12 11 4.8 98.73     Snow
16:00 0.5 -0.2 95 12 15 16.1 98.75     LegendNANA
17:00 0.4 -0.3 95 12 11 16.1 98.68     LegendNANA
18:00 0.4 -0.2 96 14 13 16.1 98.65     LegendNANA
19:00 0.4 0.1 98 13 9 16.1 98.67     Rain
20:00 0.6 0.2 97 14 13 16.1 98.58     LegendNANA
21:00 0.8 0.4 97 13 11 16.1 98.55     LegendNANA
22:00 0.9 0.5 97 15 13 16.1 98.50     LegendNANA
23:00 0.9 0.6 98 14 13 8.1 98.47     Fog

Notes on Data Quality.

Legend

  • E = Estimated
  • M = Missing
  • NA = Not Available*
  • [empty] = Indicates an unobserved value
Date modified: